Location: Unspecified
(0.0000°N, 0.0000°E)
Time: 08:40:42
(UTC+01:00)

GPS 2-15 Rocket1 - Visible Passes

Search period start: 26 October 2014 00:00
Search period end: 04 November 2014 23:00
Orbit: 627 x 681 km, 19.8° (Epoch: 24 October)

Date Brightness Start Highest point End Pass type
(mag) Time Alt. Az. Time Alt. Az. Time Alt. Az.
26 Oct 5.6 19:14:53 10° S 19:16:37 12° SSE 19:18:20 10° SSE visible
26 Oct 5.4 20:57:13 10° SW 20:59:12 20° SSW 20:59:12 20° SSW visible
27 Oct 5.2 19:41:07 10° SSW 19:44:32 18° SSE 19:47:20 12° SE visible
27 Oct 6.0 21:24:18 10° SW 21:25:04 14° SW 21:25:04 14° SW visible
28 Oct 4.3 20:07:55 10° SW 20:12:18 30° SSE 20:13:13 28° SE visible
29 Oct 3.9 20:35:04 10° WSW 20:39:06 49° SSW 20:39:06 49° SSW visible
30 Oct 4.3 19:18:39 10° SW 19:23:08 34° SSE 19:27:17 12° E visible
30 Oct 5.0 21:02:35 10° WSW 21:05:00 29° WSW 21:05:00 29° WSW visible
31 Oct 5.3 05:49:38 10° NNW 05:52:28 16° NNE 05:55:17 10° NE visible
31 Oct 3.4 19:45:51 10° WSW 19:50:46 64° SSE 19:53:11 29° E visible
31 Oct 6.2 21:30:31 10° W 21:30:55 12° W 21:30:55 12° W visible
01 Nov 4.6 06:16:17 10° NW 06:20:14 27° NNE 06:24:10 10° ENE visible
01 Nov 3.3 20:13:26 10° WSW 20:18:22 67° NNW 20:19:05 58° NNE visible
02 Nov 5.1 05:03:06 17° NNE 05:03:23 18° NNE 05:06:31 10° ENE visible
02 Nov 4.5 20:41:26 10° W 20:45:00 32° NW 20:45:00 32° NW visible
03 Nov 4.4 05:29:00 21° NNW 05:31:08 30° NNE 05:35:15 10° E visible
03 Nov 3.6 19:24:18 10° W 19:29:09 59° NNW 19:33:10 15° ENE visible
03 Nov 5.8 21:09:59 10° WNW 21:10:53 14° WNW 21:10:53 14° WNW visible
04 Nov 5.9 04:17:11 12° ENE 04:17:11 12° ENE 04:17:42 10° ENE visible
04 Nov 3.5 05:54:54 15° NW 05:58:45 57° NNE 06:03:22 10° E visible
04 Nov 4.4 19:52:24 10° W 19:56:47 32° NNW 19:59:03 22° NNE visible
